Time,TemperatureF,DewpointF,PressureIn,WindDirection,WindDirectionDegrees,WindSpeedMPH,WindSpeedGustMPH,Humidity,HourlyPrecipIn,Conditions,Clouds,dailyrainin,SolarRadiationWatts/m^2,SoftwareType,DateUTC
2013-04-03 00:02:00,44.0,43.0,-100.00,NNW,329,9.0,17.0,96,0.00,,,0.50,0.000000,,2013-04-03 05:02:00,
2013-04-03 00:33:00,44.0,43.0,-100.00,NNE,31,9.0,15.0,96,0.09,,,0.57,0.000000,,2013-04-03 05:33:00,
2013-04-03 00:42:00,44.0,43.0,-100.00,NNE,31,9.0,15.0,96,0.09,,,0.57,0.000000,,2013-04-03 05:42:00,
2013-04-03 00:52:00,44.0,43.0,-100.00,NNE,31,9.0,15.0,96,0.09,,,0.57,0.000000,,2013-04-03 05:52:00,
2013-04-03 01:02:00,44.0,43.0,-100.00,NNE,31,9.0,15.0,96,0.09,,,0.57,0.000000,,2013-04-03 06:02:00,
2013-04-03 01:32:00,44.0,43.0,-100.00,North,357,7.0,19.0,95,0.01,,,0.58,0.000000,,2013-04-03 06:32:00,
2013-04-03 01:42:00,44.0,43.0,-100.00,North,357,7.0,19.0,95,0.01,,,0.58,0.000000,,2013-04-03 06:42:00,
2013-04-03 01:52:00,44.0,43.0,-100.00,North,357,7.0,19.0,95,0.01,,,0.58,0.000000,,2013-04-03 06:52:00,
2013-04-03 02:02:00,44.0,43.0,-100.00,North,357,7.0,19.0,95,0.01,,,0.58,0.000000,,2013-04-03 07:02:00,
2013-04-03 02:33:00,45.0,44.0,-100.00,NNW,340,10.0,14.0,95,0.00,,,-99.99,0.000000,,2013-04-03 07:33:00,
2013-04-03 02:42:00,45.0,44.0,-100.00,NNW,340,10.0,14.0,95,0.00,,,-99.99,0.000000,,2013-04-03 07:42:00,
2013-04-03 02:53:00,45.0,44.0,-100.00,NNW,340,10.0,14.0,95,0.00,,,-99.99,0.000000,,2013-04-03 07:53:00,
2013-04-03 03:03:00,45.0,44.0,-100.00,NNW,340,10.0,14.0,95,0.00,,,-99.99,0.000000,,2013-04-03 08:03:00,
2013-04-03 03:33:00,44.0,43.0,-100.00,North,349,12.0,19.0,95,0.00,,,0.58,0.000000,,2013-04-03 08:33:00,
2013-04-03 03:43:00,44.0,43.0,-100.00,North,349,12.0,19.0,95,0.00,,,0.58,0.000000,,2013-04-03 08:43:00,
2013-04-03 03:52:00,44.0,43.0,-100.00,North,349,12.0,19.0,95,0.00,,,0.58,0.000000,,2013-04-03 08:52:00,
2013-04-03 04:02:00,44.0,43.0,-100.00,North,349,12.0,19.0,95,0.00,,,0.58,0.000000,,2013-04-03 09:02:00,
2013-04-03 04:33:00,43.0,42.0,-100.00,NNW,344,14.0,21.0,96,0.00,,,0.53,0.000000,,2013-04-03 09:33:00,
2013-04-03 04:43:00,43.0,42.0,-100.00,NNW,344,14.0,21.0,96,0.00,,,0.53,0.000000,,2013-04-03 09:43:00,
2013-04-03 04:53:00,43.0,42.0,-100.00,NNW,344,14.0,21.0,96,0.00,,,0.53,0.000000,,2013-04-03 09:53:00,
2013-04-03 05:03:00,43.0,42.0,-100.00,NNW,344,14.0,21.0,96,0.00,,,0.53,0.000000,,2013-04-03 10:03:00,
2013-04-03 05:33:00,42.0,41.0,-100.00,NNW,340,13.0,20.0,96,0.00,,,0.28,0.000000,,2013-04-03 10:33:00,
2013-04-03 05:43:00,42.0,41.0,-100.00,NNW,340,13.0,20.0,96,0.00,,,0.28,0.000000,,2013-04-03 10:43:00,
2013-04-03 05:53:00,42.0,41.0,-100.00,NNW,340,13.0,20.0,96,0.00,,,0.28,0.000000,,2013-04-03 10:53:00,
2013-04-03 06:02:00,42.0,41.0,-100.00,NNW,340,13.0,20.0,96,0.00,,,0.28,0.000000,,2013-04-03 11:02:00,
2013-04-03 06:33:00,42.0,41.0,-100.00,NNW,348,11.0,23.0,96,0.00,,,0.15,0.000000,,2013-04-03 11:33:00,
2013-04-03 06:42:00,42.0,41.0,-100.00,NNW,348,11.0,23.0,96,0.00,,,0.15,0.000000,,2013-04-03 11:42:00,
2013-04-03 06:53:00,42.0,41.0,-100.00,NNW,348,11.0,23.0,96,0.00,,,0.15,0.000000,,2013-04-03 11:53:00,
2013-04-03 07:02:00,42.0,41.0,-100.00,NNW,348,11.0,23.0,96,0.00,,,0.15,0.000000,,2013-04-03 12:02:00,
2013-04-03 07:33:00,43.0,42.0,-100.00,NNW,345,9.0,16.0,96,0.00,,,-99.99,0.000000,,2013-04-03 12:33:00,
2013-04-03 07:42:00,43.0,42.0,-100.00,NNW,345,9.0,16.0,96,0.00,,,-99.99,0.000000,,2013-04-03 12:42:00,
2013-04-03 07:52:00,43.0,42.0,-100.00,NNW,345,9.0,16.0,96,0.00,,,-99.99,0.000000,,2013-04-03 12:52:00,
2013-04-03 08:02:00,43.0,42.0,-100.00,NNW,345,9.0,16.0,96,0.00,,,-99.99,0.000000,,2013-04-03 13:02:00,
2013-04-03 08:32:00,43.0,42.0,-100.00,North,9,7.0,14.0,96,0.00,,,0.10,3.000000,,2013-04-03 13:32:00,
2013-04-03 08:42:00,43.0,42.0,-100.00,North,9,7.0,14.0,96,0.00,,,0.10,3.000000,,2013-04-03 13:42:00,
2013-04-03 08:52:00,43.0,42.0,-100.00,North,9,7.0,14.0,96,0.00,,,0.10,3.000000,,2013-04-03 13:52:00,
2013-04-03 09:02:00,43.0,42.0,-100.00,North,9,7.0,14.0,96,0.00,,,0.10,3.000000,,2013-04-03 14:02:00,
2013-04-03 09:32:00,43.0,42.0,-100.00,NNW,344,8.0,12.0,96,0.01,,,0.11,21.000000,,2013-04-03 14:32:00,
2013-04-03 09:43:00,43.0,42.0,-100.00,NNW,344,8.0,12.0,96,0.01,,,0.11,21.000000,,2013-04-03 14:43:00,
2013-04-03 09:52:00,43.0,42.0,-100.00,NNW,344,8.0,12.0,96,0.01,,,0.11,21.000000,,2013-04-03 14:52:00,
2013-04-03 10:02:00,43.0,42.0,-100.00,NNW,344,8.0,12.0,96,0.01,,,0.11,21.000000,,2013-04-03 15:02:00,
2013-04-03 10:33:00,44.0,43.0,-100.00,North,2,8.0,13.0,96,0.00,,,0.11,100.000000,,2013-04-03 15:33:00,
2013-04-03 10:43:00,44.0,43.0,-100.00,North,2,8.0,13.0,96,0.00,,,0.11,100.000000,,2013-04-03 15:43:00,
2013-04-03 10:53:00,44.0,43.0,-100.00,North,2,8.0,13.0,96,0.00,,,0.11,100.000000,,2013-04-03 15:53:00,
2013-04-03 11:03:00,44.0,43.0,-100.00,North,2,8.0,13.0,96,0.00,,,0.11,100.000000,,2013-04-03 16:03:00,
2013-04-03 11:33:00,45.0,44.0,-100.00,North,355,7.0,12.0,96,0.00,,,0.11,119.000000,,2013-04-03 16:33:00,
2013-04-03 11:44:00,45.0,44.0,-100.00,North,355,7.0,12.0,96,0.00,,,0.11,119.000000,,2013-04-03 16:44:00,
2013-04-03 11:53:00,45.0,44.0,-100.00,North,355,7.0,12.0,96,0.00,,,0.11,119.000000,,2013-04-03 16:53:00,
2013-04-03 12:03:00,45.0,44.0,-100.00,North,355,7.0,12.0,96,0.00,,,0.11,119.000000,,2013-04-03 17:03:00,
2013-04-03 12:35:00,46.0,44.0,-100.00,North,354,7.0,10.0,94,0.00,,,0.11,107.000000,,2013-04-03 17:35:00,
2013-04-03 12:46:00,46.0,44.0,-100.00,North,354,7.0,10.0,94,0.00,,,0.11,107.000000,,2013-04-03 17:46:00,
2013-04-03 12:54:00,46.0,44.0,-100.00,North,354,7.0,10.0,94,0.00,,,0.11,107.000000,,2013-04-03 17:54:00,
2013-04-03 13:02:00,46.0,44.0,-100.00,North,354,7.0,10.0,94,0.00,,,0.11,107.000000,,2013-04-03 18:02:00,
2013-04-03 13:34:00,46.0,43.0,-100.00,NNW,327,7.0,12.0,90,0.00,,,0.11,136.000000,,2013-04-03 18:34:00,
2013-04-03 13:43:00,46.0,43.0,-100.00,NNW,327,7.0,12.0,90,0.00,,,0.11,136.000000,,2013-04-03 18:43:00,
2013-04-03 13:52:00,46.0,43.0,-100.00,NNW,327,7.0,12.0,90,0.00,,,0.11,136.000000,,2013-04-03 18:52:00,
2013-04-03 14:03:00,46.0,43.0,-100.00,NNW,327,7.0,12.0,90,0.00,,,0.11,136.000000,,2013-04-03 19:03:00,
2013-04-03 14:32:00,45.0,43.0,-100.00,NNW,333,9.0,16.0,93,0.02,,,0.13,56.000000,,2013-04-03 19:32:00,
2013-04-03 14:42:00,45.0,43.0,-100.00,NNW,333,9.0,16.0,93,0.02,,,0.13,56.000000,,2013-04-03 19:42:00,
2013-04-03 14:52:00,45.0,43.0,-100.00,NNW,333,9.0,16.0,93,0.02,,,0.13,56.000000,,2013-04-03 19:52:00,
2013-04-03 15:02:00,45.0,43.0,-100.00,NNW,333,9.0,16.0,93,0.02,,,0.13,56.000000,,2013-04-03 20:02:00,
2013-04-03 15:33:00,45.0,44.0,-100.00,NW,324,6.0,12.0,95,0.23,,,0.36,45.000000,,2013-04-03 20:33:00,
2013-04-03 15:42:00,45.0,44.0,-100.00,NW,324,6.0,12.0,95,0.23,,,0.36,45.000000,,2013-04-03 20:42:00,
2013-04-03 15:53:00,45.0,44.0,-100.00,NW,324,6.0,12.0,95,0.23,,,0.36,45.000000,,2013-04-03 20:53:00,
2013-04-03 16:02:00,45.0,44.0,-100.00,NW,324,6.0,12.0,95,0.23,,,0.36,45.000000,,2013-04-03 21:02:00,
2013-04-03 16:33:00,45.0,43.0,-100.00,NW,325,8.0,17.0,94,0.03,,,-99.99,109.000000,,2013-04-03 21:33:00,
2013-04-03 16:42:00,45.0,43.0,-100.00,NW,325,8.0,17.0,94,0.03,,,-99.99,109.000000,,2013-04-03 21:42:00,
2013-04-03 16:52:00,45.0,43.0,-100.00,NW,325,8.0,17.0,94,0.03,,,-99.99,109.000000,,2013-04-03 21:52:00,
2013-04-03 17:02:00,45.0,43.0,-100.00,NW,325,8.0,17.0,94,0.03,,,-99.99,109.000000,,2013-04-03 22:02:00,
2013-04-03 17:33:00,44.0,43.0,-100.00,NNW,329,9.0,14.0,95,0.06,,,0.45,51.000000,,2013-04-03 22:33:00,
2013-04-03 17:42:00,44.0,43.0,-100.00,NNW,329,9.0,14.0,95,0.06,,,0.45,51.000000,,2013-04-03 22:42:00,
2013-04-03 17:52:00,44.0,43.0,-100.00,NNW,329,9.0,14.0,95,0.06,,,0.45,51.000000,,2013-04-03 22:52:00,
2013-04-03 18:02:00,44.0,43.0,-100.00,NNW,329,9.0,14.0,95,0.06,,,0.45,51.000000,,2013-04-03 23:02:00,
2013-04-03 18:33:00,44.0,43.0,-100.00,NNW,336,10.0,17.0,95,0.03,,,0.48,45.000000,,2013-04-03 23:33:00,
2013-04-03 18:43:00,44.0,43.0,-100.00,NNW,336,10.0,17.0,95,0.03,,,0.48,45.000000,,2013-04-03 23:43:00,
2013-04-03 18:54:00,44.0,43.0,-100.00,NNW,336,10.0,17.0,95,0.03,,,0.48,45.000000,,2013-04-03 23:54:00,
2013-04-03 19:03:00,44.0,43.0,-100.00,NNW,336,10.0,17.0,95,0.03,,,0.48,45.000000,,2013-04-04 00:03:00,
2013-04-03 19:32:00,44.0,42.0,-100.00,NNW,336,9.0,16.0,94,0.00,,,0.48,30.000000,,2013-04-04 00:32:00,
2013-04-03 19:43:00,44.0,42.0,-100.00,NNW,336,9.0,16.0,94,0.00,,,0.48,30.000000,,2013-04-04 00:43:00,
2013-04-03 19:52:00,44.0,42.0,-100.00,NNW,336,9.0,16.0,94,0.00,,,0.48,30.000000,,2013-04-04 00:52:00,
2013-04-03 20:02:00,44.0,42.0,-100.00,NNW,336,9.0,16.0,94,0.00,,,0.48,30.000000,,2013-04-04 01:02:00,
2013-04-03 20:32:00,44.0,42.0,-100.00,North,356,8.0,16.0,93,0.00,,,0.48,6.000000,,2013-04-04 01:32:00,
2013-04-03 20:43:00,44.0,42.0,-100.00,North,356,8.0,16.0,93,0.00,,,0.48,6.000000,,2013-04-04 01:43:00,
2013-04-03 20:52:00,44.0,42.0,-100.00,North,356,8.0,16.0,93,0.00,,,0.48,6.000000,,2013-04-04 01:52:00,
2013-04-03 21:02:00,44.0,42.0,-100.00,North,356,8.0,16.0,93,0.00,,,0.48,6.000000,,2013-04-04 02:02:00,
2013-04-03 21:32:00,42.0,40.0,-100.00,North,357,8.0,11.0,93,0.00,,,0.48,0.000000,,2013-04-04 02:32:00,
2013-04-03 21:42:00,42.0,40.0,-100.00,North,357,8.0,11.0,93,0.00,,,0.48,0.000000,,2013-04-04 02:42:00,
2013-04-03 21:53:00,42.0,40.0,-100.00,North,357,8.0,11.0,93,0.00,,,0.48,0.000000,,2013-04-04 02:53:00,
2013-04-03 22:02:00,42.0,40.0,-100.00,North,357,8.0,11.0,93,0.00,,,0.48,0.000000,,2013-04-04 03:02:00,
2013-04-03 22:34:00,42.0,40.0,-100.00,NNW,341,7.0,11.0,92,0.00,,,0.48,0.000000,,2013-04-04 03:34:00,
2013-04-03 22:45:00,42.0,40.0,-100.00,NNW,341,7.0,11.0,92,0.00,,,0.48,0.000000,,2013-04-04 03:45:00,
2013-04-03 22:53:00,42.0,40.0,-100.00,NNW,341,7.0,11.0,92,0.00,,,0.48,0.000000,,2013-04-04 03:53:00,
2013-04-03 23:03:00,42.0,40.0,-100.00,NNW,341,7.0,11.0,92,0.00,,,0.48,0.000000,,2013-04-04 04:03:00,
2013-04-03 23:34:00,41.0,39.0,-100.00,NNW,336,7.0,11.0,92,0.00,,,0.48,0.000000,,2013-04-04 04:34:00,
2013-04-03 23:43:00,41.0,39.0,-100.00,NNW,336,7.0,11.0,92,0.00,,,0.48,0.000000,,2013-04-04 04:43:00,
2013-04-03 23:53:00,41.0,39.0,-100.00,NNW,336,7.0,11.0,92,0.00,,,0.48,0.000000,,2013-04-04 04:53:00,